Location: Squirrel Cove
(50.1074°N, 124.9139°W)
Time: 12:56:33
(UTC-07:00)

PCSat - Pass Details

Date: 26 May 2022
Orbit: 784 x 795 km, 67.1° (Epoch: 26 June)

Event Time Altitude Azimuth Distance (km) Brightness Sun altitude
Rises 00:22:49 0° 322° (NW) 3,306 14.0 -17.8°
Reaches altitude 10° 00:25:56 10° 339° (NNW) 2,374 13.3 -17.9°
Maximum altitude 00:29:52 20° 25° (NNE) 1,787 12.0 -18.0°
Drops below altitude 10° 00:33:47 10° 72° (ENE) 2,369 12.1 -18.1°
Sets 00:36:52 0° 89° (E) 3,295 12.7 -18.2°
